DLH4LH EDDM-EDDP

Flight info

Callsign DLH4LH
Flight time 0h 33m
Altitude 30000
Route INPUD2N INPUD Y102 UPALA M726 LASGA T953 VOCIM/N0448F290 T954 GOXLI GOXLI1R
Aircraft A320/M-SDE3FGHIRWY/LB1

Departure

Time 2026-05-05 16:11
Airport Munich Airport (EDDM)

Arrival

Time 2026-05-05 16:44
Airport Leipzig/Halle Airport (EDDP)
Time Latitude Longitude Altitude Speed Heading
2026-05-05 15:39 48.35236 11.79341 1478 ft 0 kts 263°
2026-05-05 15:40 48.35237 11.79353 1478 ft 0 kts 263°
2026-05-05 16:02 48.35239 11.79383 1483 ft 4 kts 263°
2026-05-05 16:02 48.35241 11.79409 1475 ft 4 kts 263°
2026-05-05 16:02 48.35244 11.79442 1481 ft 4 kts 271°
2026-05-05 16:03 48.35238 11.79478 1477 ft 4 kts 313°
2026-05-05 16:03 48.35217 11.79495 1480 ft 3 kts 353°
2026-05-05 16:03 48.35199 11.79498 1483 ft 0 kts 353°
2026-05-05 16:06 48.35258 11.79488 1475 ft 14 kts 353°
2026-05-05 16:06 48.35349 11.79472 1477 ft 12 kts 353°
2026-05-05 16:07 48.35445 11.79455 1485 ft 16 kts 353°
2026-05-05 16:07 48.35548 11.79437 1485 ft 14 kts 354°
2026-05-05 16:07 48.35638 11.79422 1478 ft 12 kts 354°
2026-05-05 16:07 48.35712 11.79441 1483 ft 13 kts 28°
2026-05-05 16:08 48.35812 11.79513 1480 ft 16 kts 15°
2026-05-05 16:08 48.35924 11.79509 1481 ft 19 kts 353°
2026-05-05 16:08 48.36053 11.79486 1481 ft 18 kts 353°
2026-05-05 16:08 48.36116 11.79614 1485 ft 20 kts 83°
2026-05-05 16:09 48.36133 11.79841 1480 ft 23 kts 83°
2026-05-05 16:09 48.36151 11.80078 1477 ft 23 kts 84°
2026-05-05 16:09 48.36170 11.80315 1480 ft 23 kts 83°
2026-05-05 16:09 48.36187 11.80532 1485 ft 15 kts 81°
2026-05-05 16:10 48.36265 11.80575 1484 ft 13 kts 353°
2026-05-05 16:10 48.36357 11.80510 1478 ft 20 kts 305°
2026-05-05 16:10 48.36426 11.80275 1480 ft 27 kts 293°
2026-05-05 16:10 48.36499 11.80011 1481 ft 28 kts 289°
2026-05-05 16:11 48.36502 11.79698 1480 ft 37 kts 263°
2026-05-05 16:11 48.36234 11.75910 2326 ft 155 kts 266°
2026-05-05 16:12 48.36117 11.74257 2962 ft 167 kts 267°
2026-05-05 16:12 48.35845 11.70425 3765 ft 202 kts 266°
2026-05-05 16:13 48.37780 11.64767 5232 ft 261 kts 340°
2026-05-05 16:13 48.39601 11.64108 5914 ft 275 kts 350°
2026-05-05 16:13 48.41522 11.63727 6742 ft 282 kts 352°
2026-05-05 16:14 48.45519 11.63003 8422 ft 295 kts 349°
2026-05-05 16:14 48.49594 11.61978 10245 ft 300 kts 347°
2026-05-05 16:15 48.53760 11.60734 11737 ft 311 kts 346°
2026-05-05 16:15 48.58035 11.59230 13181 ft 324 kts 337°
2026-05-05 16:16 48.62545 11.56632 13602 ft 368 kts 336°
2026-05-05 16:16 48.67426 11.53737 14725 ft 382 kts 336°
2026-05-05 16:17 48.72448 11.50804 16021 ft 391 kts 337°
2026-05-05 16:17 48.75007 11.49325 16614 ft 396 kts 337°
2026-05-05 16:18 48.80216 11.46321 17835 ft 405 kts 337°
2026-05-05 16:18 48.82861 11.44789 18397 ft 409 kts 337°
2026-05-05 16:18 48.88178 11.41691 19486 ft 415 kts 337°
2026-05-05 16:19 48.90885 11.40110 20016 ft 418 kts 337°
2026-05-05 16:19 48.93615 11.38513 20556 ft 422 kts 337°
2026-05-05 16:19 48.99139 11.35277 21610 ft 429 kts 338°
2026-05-05 16:20 49.04752 11.31989 22620 ft 435 kts 338°
2026-05-05 16:20 49.10460 11.28646 23562 ft 442 kts 338°
2026-05-05 16:21 49.16235 11.25236 24342 ft 448 kts 338°
2026-05-05 16:22 49.25401 11.22154 25510 ft 457 kts
2026-05-05 16:22 49.31794 11.22232 26249 ft 462 kts
2026-05-05 16:23 49.38267 11.22285 26986 ft 468 kts 360°
2026-05-05 16:23 49.41536 11.22305 27367 ft 470 kts 360°
2026-05-05 16:23 49.48123 11.22354 28052 ft 476 kts
2026-05-05 16:24 49.51436 11.22379 28374 ft 479 kts
2026-05-05 16:24 49.54737 11.22410 28686 ft 481 kts
2026-05-05 16:24 49.61482 11.22461 29297 ft 486 kts
2026-05-05 16:25 49.64870 11.22465 29600 ft 488 kts 360°
2026-05-05 16:25 49.71701 11.22458 29818 ft 497 kts 360°
2026-05-05 16:25 49.75174 11.22458 29809 ft 503 kts 360°
2026-05-05 16:26 49.89238 11.22533 29795 ft 506 kts 359°
2026-05-05 16:27 49.96236 11.22586 29783 ft 506 kts 359°
2026-05-05 16:27 50.03274 11.22624 29782 ft 506 kts 359°
2026-05-05 16:28 50.10306 11.22658 29776 ft 505 kts 359°
2026-05-05 16:28 50.13786 11.22681 29652 ft 493 kts 358°
2026-05-05 16:28 50.17190 11.22721 29081 ft 483 kts
2026-05-05 16:29 50.20521 11.23406 27894 ft 487 kts 15°
2026-05-05 16:29 50.23680 11.25194 26549 ft 480 kts 21°
2026-05-05 16:29 50.26758 11.27134 25737 ft 473 kts 22°
2026-05-05 16:29 50.29791 11.29051 25160 ft 467 kts 22°
2026-05-05 16:30 50.32791 11.30940 24557 ft 463 kts 22°
2026-05-05 16:30 50.35725 11.32777 23962 ft 458 kts 22°
2026-05-05 16:30 50.38703 11.34632 23349 ft 453 kts 22°
2026-05-05 16:30 50.41624 11.36451 22725 ft 448 kts 22°
2026-05-05 16:31 50.44494 11.38240 22156 ft 441 kts 22°
2026-05-05 16:31 50.47332 11.40011 21576 ft 436 kts 21°
2026-05-05 16:31 50.50132 11.41764 21017 ft 431 kts 22°
2026-05-05 16:31 50.52901 11.43504 20461 ft 426 kts 21°
2026-05-05 16:32 50.55642 11.45228 19907 ft 422 kts 21°
2026-05-05 16:32 50.58323 11.46916 19369 ft 419 kts 21°
2026-05-05 16:32 50.61016 11.48614 18832 ft 415 kts 21°
2026-05-05 16:32 50.63691 11.50302 18294 ft 413 kts 21°
2026-05-05 16:33 50.66346 11.51982 17714 ft 410 kts 21°
2026-05-05 16:33 50.68986 11.53657 17184 ft 406 kts 21°
2026-05-05 16:33 50.71589 11.55307 16664 ft 402 kts 21°
2026-05-05 16:33 50.74172 11.56945 16142 ft 399 kts 22°
2026-05-05 16:34 50.76744 11.58578 15633 ft 396 kts 21°
2026-05-05 16:34 50.79291 11.60196 15116 ft 393 kts 21°
2026-05-05 16:34 50.81821 11.61805 14609 ft 390 kts 22°
2026-05-05 16:34 50.84338 11.63410 14099 ft 388 kts 22°
2026-05-05 16:35 50.86827 11.64998 13608 ft 385 kts 22°
2026-05-05 16:35 50.89304 11.66577 13063 ft 382 kts 22°
2026-05-05 16:35 50.91752 11.68140 12580 ft 377 kts 22°
2026-05-05 16:35 50.94172 11.69685 12093 ft 372 kts 22°
2026-05-05 16:36 50.96562 11.71217 11609 ft 367 kts 22°
2026-05-05 16:36 50.98920 11.72730 11144 ft 363 kts 22°
2026-05-05 16:36 51.01246 11.74220 10667 ft 359 kts 22°
2026-05-05 16:36 51.03520 11.75678 10217 ft 355 kts 22°
2026-05-05 16:37 51.05800 11.77143 9755 ft 351 kts 22°
2026-05-05 16:37 51.08051 11.78594 9267 ft 347 kts 22°
2026-05-05 16:37 51.10277 11.80033 8817 ft 342 kts 22°
2026-05-05 16:37 51.12467 11.81449 8391 ft 337 kts 22°
2026-05-05 16:38 51.14606 11.82831 8124 ft 328 kts 22°
2026-05-05 16:38 51.16707 11.84187 7722 ft 323 kts 22°
2026-05-05 16:38 51.18779 11.85530 7316 ft 320 kts 22°
2026-05-05 16:38 51.20836 11.86864 6897 ft 317 kts 22°
2026-05-05 16:39 51.22865 11.88178 6481 ft 313 kts 22°
2026-05-05 16:39 51.24873 11.89481 6062 ft 310 kts 22°
2026-05-05 16:39 51.26857 11.90772 5654 ft 305 kts 22°
2026-05-05 16:39 51.28810 11.92042 5261 ft 300 kts 22°
2026-05-05 16:40 51.30732 11.93292 4878 ft 295 kts 23°
2026-05-05 16:40 51.32609 11.94514 4493 ft 290 kts 24°
2026-05-05 16:40 51.34454 11.95718 4109 ft 277 kts 23°
2026-05-05 16:40 51.36177 11.96848 3762 ft 259 kts 24°
2026-05-05 16:41 51.37782 11.97958 3325 ft 247 kts 31°
2026-05-05 16:41 51.39079 11.99619 2991 ft 232 kts 49°
2026-05-05 16:41 51.39934 12.01705 2760 ft 219 kts 65°
2026-05-05 16:41 51.40353 12.03951 2497 ft 210 kts 80°
2026-05-05 16:42 51.40474 12.06237 2237 ft 202 kts 84°
2026-05-05 16:42 51.40580 12.08406 1984 ft 188 kts 84°
2026-05-05 16:42 51.40675 12.10388 1746 ft 168 kts 83°
2026-05-05 16:42 51.40761 12.12146 1521 ft 150 kts 83°
2026-05-05 16:43 51.40837 12.13743 1300 ft 138 kts 83°
2026-05-05 16:43 51.40910 12.15251 1085 ft 135 kts 82°
2026-05-05 16:43 51.40983 12.16764 959 ft 136 kts 83°
2026-05-05 16:43 51.41057 12.18278 783 ft 137 kts 82°
2026-05-05 16:44 51.41133 12.19787 578 ft 133 kts 83°
2026-05-05 16:44 51.41196 12.21236 450 ft 121 kts 85°
2026-05-05 16:44 51.41248 12.22313 459 ft 72 kts 86°
2026-05-05 16:44 51.41267 12.22734 465 ft 49 kts 85°
2026-05-05 16:45 51.41303 12.23221 469 ft 17 kts 46°
2026-05-05 16:45 51.41384 12.23248 468 ft 19 kts 358°
2026-05-05 16:45 51.41532 12.23231 465 ft 20 kts 355°
2026-05-05 16:45 51.41635 12.23026 460 ft 20 kts 285°
2026-05-05 16:46 51.41667 12.22843 453 ft 16 kts 285°
2026-05-05 16:46 51.41686 12.22731 449 ft 16 kts 285°
2026-05-05 16:46 51.41715 12.22556 436 ft 17 kts 285°
2026-05-05 16:46 51.41749 12.22365 436 ft 18 kts 285°
2026-05-05 16:47 51.41780 12.22180 425 ft 17 kts 285°
2026-05-05 16:47 51.41808 12.22018 428 ft 8 kts 287°
2026-05-05 16:47 51.41844 12.22006 428 ft 6 kts
2026-05-05 16:47 51.41884 12.22022 425 ft 6 kts 15°
2026-05-05 16:48 51.41908 12.22032 431 ft 0 kts 15°